| time (UTC) | temp C | wind direction | speed KPH | gust KPH | rain 1hr cm | rain 24hr cm | rain mn cm | humidity % | barometer mb |
| 20260505051550 | 12 | 0.0 | 0.0 | 0.00 | 0.00 | 0.00 | 69 | 1014.7 | |
| 20260505041556 | 9 | 0 | 0.0 | 6.4 | 0.00 | 0.00 | 0.00 | 75 | 1014.4 |
| 20260505040100 | 8 | 263 | 0.0 | 4.8 | 0.00 | 0.00 | 0.00 | 76 | 1014.4 |
| 20260505034547 | 8 | 287 | 3.2 | 4.8 | 0.00 | 0.00 | 0.00 | 76 | 1014.0 |
| 20260505033054 | 8 | 338 | 1.6 | 6.4 | 0.00 | 0.00 | 0.00 | 78 | 1014.1 |
| 20260505031551 | 7 | 5 | 3.2 | 6.4 | 0.00 | 0.00 | 0.00 | 78 | 1014.0 |
| 20260505030049 | 7 | 27 | 3.2 | 6.4 | 0.00 | 0.00 | 0.00 | 77 | 1014.0 |
| 20260505024547 | 8 | 24 | 4.8 | 4.8 | 0.00 | 0.00 | 0.00 | 74 | 1014.1 |
| 20260505023048 | -17 | 11 | 4.8 | 4.8 | 0.00 | 0.00 | 0.00 | 1014.2 | |
| 20260505021546 | -17 | 0.0 | 0.0 | 0.00 | 0.00 | 0.00 | 1014.2 | ||
| 20260505020046 | 8 | 5 | 3.2 | 4.8 | 0.00 | 0.00 | 0.00 | 75 | 1014.3 |
| 20260505014545 | 8 | 5 | 4.8 | 6.4 | 0.00 | 0.00 | 0.00 | 74 | 1014.4 |
| 20260505013044 | 8 | 5 | 3.2 | 4.8 | 0.00 | 0.00 | 0.00 | 74 | 1014.5 |
| 20260505011548 | 8 | 0 | 1.6 | 4.8 | 0.00 | 0.00 | 0.00 | 74 | 1014.6 |
| 20260505010058 | 9 | 333 | 1.6 | 4.8 | 0.00 | 0.00 | 0.00 | 72 | 1014.6 |
| 20260505004548 | 10 | 314 | 3.2 | 6.4 | 0.00 | 0.00 | 0.00 | 71 | 1014.6 |
| 20260505003054 | 11 | 360 | 1.6 | 4.8 | 0.00 | 0.00 | 0.00 | 70 | 1014.6 |
| 20260505001552 | 11 | 360 | 0.0 | 1.6 | 0.00 | 0.00 | 0.00 | 67 | 1014.7 |
| 20260505000100 | -17 | 0.0 | 0.0 | 0.00 | 0.00 | 0.00 | 1014.9 | ||
| 20260504234602 | 10 | 360 | 1.6 | 3.2 | 0.00 | 0.00 | 0.00 | 72 | 1015.0 |
| 20260504233051 | 9 | 360 | 1.6 | 4.8 | 0.00 | 0.00 | 0.00 | 70 | 1015.1 |
| 20260504231550 | 10 | 0 | 0.0 | 0.0 | 0.00 | 0.00 | 0.00 | 70 | 1015.1 |
| 20260504230054 | 11 | 0 | 0.0 | 1.6 | 0.00 | 0.00 | 0.00 | 67 | 1015.3 |
| 20260504224552 | 11 | 0 | 0.0 | 1.6 | 0.00 | 0.00 | 0.00 | 65 | 1015.4 |
| 20260504223050 | 12 | 0 | 0.0 | 3.2 | 0.00 | 0.00 | 0.00 | 64 | 1015.4 |
| 20260504221549 | 12 | 223 | 1.6 | 3.2 | 0.00 | 0.00 | 0.00 | 66 | 1015.5 |
| 20260504214545 | 12 | 0 | 0.0 | 0.0 | 0.00 | 0.00 | 0.00 | 64 | 1015.4 |
| 20260504213107 | 12 | 0 | 0.0 | 0.0 | 0.00 | 0.00 | 0.00 | 62 | 1015.5 |
| 20260504211551 | 13 | 0 | 0.0 | 3.2 | 0.00 | 0.00 | 0.00 | 61 | 1015.5 |
| 20260504210052 | 13 | 111 | 0.0 | 1.6 | 0.00 | 0.00 | 0.00 | 61 | 1015.5 |
| 20260504204559 | 13 | 0 | 0.0 | 0.0 | 0.00 | 0.00 | 0.00 | 60 | 1015.5 |
| 20260504203051 | 13 | 111 | 1.6 | 3.2 | 0.00 | 0.00 | 0.00 | 60 | 1015.5 |
| 20260504201549 | 13 | 0 | 0.0 | 0.0 | 0.00 | 0.00 | 0.00 | 59 | 1015.5 |
| 20260504200053 | 14 | 0 | 0.0 | 3.2 | 0.00 | 0.00 | 0.00 | 58 | 1015.5 |
| 20260504194549 | 15 | 124 | 1.6 | 3.2 | 0.00 | 0.00 | 0.00 | 58 | 1015.5 |
| 20260504193104 | 16 | 124 | 1.6 | 3.2 | 0.00 | 0.00 | 0.00 | 53 | 1015.5 |
| 20260504191548 | 17 | 124 | 3.2 | 4.8 | 0.00 | 0.00 | 0.00 | 51 | 1015.3 |
| 20260504190053 | 17 | 0.0 | 0.0 | 0.00 | 0.00 | 0.00 | 50 | 1015.4 | |
| 20260504184544 | 17 | 0 | 0.0 | 0.0 | 0.00 | 0.00 | 0.00 | 49 | 1015.3 |
| 20260504183058 | 17 | 0 | 0.0 | 3.2 | 0.00 | 0.00 | 0.00 | 49 | 1015.2 |
| 20260504181546 | 18 | 78 | 1.6 | 4.8 | 0.00 | 0.00 | 0.00 | 49 | 1014.9 |
| 20260504180122 | 18 | 88 | 4.8 | 11.3 | 0.00 | 0.00 | 0.00 | 49 | 1015.0 |
| 20260504174548 | 19 | 93 | 8.0 | 11.3 | 0.00 | 0.00 | 0.00 | 46 | 1014.9 |
| 20260504173049 | 21 | 73 | 6.4 | 9.7 | 0.00 | 0.00 | 0.00 | 42 | 1015.0 |
| 20260504171552 | 22 | 120 | 4.8 | 6.4 | 0.00 | 0.00 | 0.00 | 39 | 1014.9 |
| 20260504081545 | 19 | 0 | 4.8 | 14.5 | 0.00 | 0.00 | 0.00 | 44 | 1019.3 |